This demonstration page uses our WeatherBlox Daily Observations layout. Learn more.

Left ArrowRight Arrow

40.92945, -100.16068

Hourly Observations for February 15, 2015

Temp ( °F °C ) Dew Point ( °F °C ) Humidity (%) Winds ( mph kmh ) Pressure ( in mb ) Visibility ( mi km ) Precip ( " mm )
12:15 am 00:15 Cloudy 19 -7.1 4 -15.7 51 51 ESE 10 17 30.45 1031 10 16 N/A
12:35 am 00:35 Cloudy 19 -7.3 2 -16.9 47 47 SE 9 15 30.45 1031 10 16 N/A
12:55 am 00:55 Cloudy 19 -7.5 2 -16.5 49 49 SE 10 17 30.45 1031 10 16 N/A
1:15 am 01:15 Cloudy 19 -7.5 4 -15.8 52 52 SE 12 19 30.42 1030 10 16 N/A
1:35 am 01:35 Cloudy 19 -7.5 4 -15.6 53 53 SE 9 15 30.45 1031 10 16 N/A
1:55 am 01:55 Cloudy 19 -7.5 4 -15.5 53 53 SE 9 15 30.45 1031 10 16 N/A
2:15 am 02:15 Cloudy 19 -7.5 5 -15.2 54 54 SE 9 15 30.45 1031 10 16 N/A
2:35 am 02:35 Cloudy 19 -7.5 5 -14.9 56 56 SE 8 13 30.42 1030 10 16 N/A
2:55 am 02:55 Cloudy 18 -7.6 5 -14.9 56 56 ESE 7 11 30.42 1030 10 16 N/A
3:15 am 03:15 Cloudy 19 -7.5 6 -14.4 58 58 SE 7 11 30.42 1030 10 16 N/A
3:35 am 03:35 Cloudy 19 -7.4 6 -14.7 56 56 SE 8 13 30.42 1030 10 16 N/A
3:55 am 03:55 Cloudy 19 -7.2 6 -14.5 56 56 SE 10 17 30.42 1030 10 16 N/A
4:15 am 04:15 Cloudy 19 -7.5 4 -15.4 54 54 SE 12 19 30.42 1030 10 16 N/A
4:35 am 04:35 Cloudy 19 -7.5 4 -15.6 53 53 SE 8 13 30.42 1030 10 16 N/A
4:55 am 04:55 Cloudy 19 -7.5 5 -15.2 54 54 SE 8 13 30.42 1030 10 16 N/A
5:15 am 05:15 Cloudy 19 -7.5 5 -15 55 55 ESE 9 15 30.42 1030 10 16 N/A
5:35 am 05:35 Cloudy 19 -7.5 5 -14.8 56 56 ESE 10 17 30.39 1029 10 16 N/A
5:55 am 05:55 Cloudy 18 -7.6 6 -14.5 58 58 ESE 9 15 30.39 1029 10 16 N/A
6:15 am 06:15 Cloudy 19 -7.5 7 -14.1 60 60 SE 9 15 30.39 1029 10 16 N/A
6:35 am 06:35 Cloudy 18 -7.6 7 -14.1 60 60 ESE 7 11 30.39 1029 10 16 N/A
6:55 am 06:55 Cloudy 18 -7.7 7 -14 61 61 ESE 9 15 30.39 1029 10 16 N/A
7:15 am 07:15 Cloudy 18 -7.7 7 -14 61 61 ESE 7 11 30.39 1029 10 16 N/A
7:35 am 07:35 Cloudy 18 -7.7 7 -14.1 60 60 SE 8 13 30.39 1029 10 16 N/A
7:55 am 07:55 Cloudy 18 -7.8 6 -14.5 59 59 SE 7 11 30.39 1029 10 16 N/A
8:15 am 08:15 Cloudy 18 -8 6 -14.2 61 61 ESE 5 7 30.42 1030 10 16 N/A
8:35 am 08:35 Cloudy 18 -7.9 7 -14 62 62 SSE 6 9 30.42 1030 10 16 N/A
8:55 am 08:55 Cloudy 18 -8 7 -14 62 62 SE 7 11 30.39 1029 10 16 N/A
9:15 am 09:15 Cloudy 18 -8 6 -14.5 60 60 SE 5 7 30.42 1030 10 16 N/A
9:35 am 09:35 Cloudy 18 -7.8 6 -14.3 60 60 Calm 30.42 1030 10 16 N/A
9:55 am 09:55 Cloudy 18 -7.8 6 -14.5 59 59 Calm 30.42 1030 10 16 N/A
10:15 am 10:15 Cloudy 18 -7.7 6 -14.2 60 60 SE 5 7 30.42 1030 10 16 N/A
10:35 am 10:35 Cloudy 19 -7.3 7 -14 59 59 S 3 6 30.42 1030 10 16 N/A
10:55 am 10:55 Cloudy 19 -7.5 6 -14.2 59 59 S 3 6 30.42 1030 10 16 N/A
11:15 am 11:15 Cloudy 19 -7 7 -13.9 58 58 S 6 9 30.42 1030 10 16 N/A
11:35 am 11:35 Cloudy 19 -7 7 -14 58 58 S 3 6 30.42 1030 10 16 N/A
11:55 am 11:55 Cloudy 20 -6.6 7 -13.7 57 57 S 3 6 30.39 1029 10 16 N/A
12:15 pm 12:15 Cloudy 20 -6.6 7 -13.8 57 57 Calm 30.39 1029 10 16 N/A
12:35 pm 12:35 Cloudy 21 -6.3 7 -13.9 55 55 Calm 30.36 1028 10 16 N/A
12:55 pm 12:55 Cloudy 21 -6 7 -13.7 55 55 Calm 30.36 1028 10 16 N/A
1:15 pm 13:15 Cloudy 21 -5.9 7 -13.7 54 54 Calm 30.36 1028 10 16 N/A
1:35 pm 13:35 Cloudy 23 -5.2 8 -13.4 53 53 SSW 3 6 30.33 1027 10 16 N/A
1:55 pm 13:55 Cloudy 23 -4.8 8 -13.3 52 52 Calm 30.33 1027 10 16 N/A
2:15 pm 14:15 Cloudy 24 -4.5 8 -13.2 51 51 SW 5 7 30.33 1027 10 16 N/A
2:35 pm 14:35 Partly Cloudy 25 -3.8 8 -13.3 48 48 SW 3 6 30.33 1027 10 16 N/A
2:55 pm 14:55 Sunny 25 -3.8 9 -13 49 49 Calm 30.27 1025 10 16 N/A
3:15 pm 15:15 Partly Cloudy 26 -3.5 9 -13 48 48 Calm 30.27 1025 10 16 N/A
3:35 pm 15:35 Mostly Cloudy 26 -3.2 9 -12.9 47 47 Calm 30.27 1025 10 16 N/A
3:55 pm 15:55 Cloudy 27 -2.7 10 -12.4 48 48 NW 5 7 30.27 1025 10 16 N/A
4:15 pm 16:15 Cloudy 27 -2.6 10 -12.3 48 48 Calm 30.27 1025 10 16 N/A
4:35 pm 16:35 Cloudy 28 -2.5 10 -12.1 48 48 NNW 3 6 30.27 1025 10 16 N/A
4:55 pm 16:55 Cloudy 28 -2 11 -11.6 48 48 NNW 3 6 30.24 1024 10 16 N/A
5:15 pm 17:15 Cloudy 29 -1.7 12 -11 49 49 NNW 5 7 30.24 1024 10 16 N/A
5:35 pm 17:35 Cloudy 29 -1.5 13 -10.5 51 51 NW 5 7 30.24 1024 10 16 N/A
5:55 pm 17:55 Cloudy 29 -1.5 14 -10 53 53 N 3 6 30.21 1023 10 16 N/A
6:15 pm 18:15 Cloudy 29 -1.8 15 -9.6 56 56 Calm 30.27 1025 10 16 N/A
6:35 pm 18:35 Cloudy 28 -2 17 -8.3 62 62 Calm 30.27 1025 10 16 N/A
6:55 pm 18:55 Cloudy 28 -2.2 16 -8.8 61 61 Calm 30.27 1025 10 16 N/A
7:15 pm 19:15 Mostly Cloudy 28 -2 16 -9.1 59 59 Calm 30.27 1025 10 16 N/A
7:35 pm 19:35 Partly Cloudy 28 -2.5 17 -8.5 64 64 Calm 30.27 1025 10 16 N/A
7:55 pm 19:55 Partly Cloudy 27 -2.7 17 -8.5 65 65 Calm 30.27 1025 10 16 N/A
8:15 pm 20:15 Clear 27 -2.6 16 -8.8 63 63 SSE 5 7 30.30 1026 10 16 N/A
8:35 pm 20:35 Clear 27 -2.9 16 -9.1 63 63 SSE 6 9 30.30 1026 10 16 N/A
8:55 pm 20:55 Partly Cloudy 26 -3.1 15 -9.3 63 63 SSE 6 9 30.30 1026 10 16 N/A
9:15 pm 21:15 Partly Cloudy 26 -3.3 16 -9 65 65 SSE 5 7 30.30 1026 10 16 N/A
9:35 pm 21:35 Clear 26 -3.5 16 -9 66 66 SE 3 6 30.27 1025 10 16 N/A
9:55 pm 21:55 Clear 26 -3.6 16 -9.1 66 66 SE 3 6 30.27 1025 10 16 N/A
10:15 pm 22:15 Clear 25 -3.9 16 -8.9 69 69 ESE 3 6 30.27 1025 10 16 N/A
10:35 pm 22:35 Clear 25 -4 16 -8.9 69 69 Calm 30.27 1025 10 16 N/A
10:55 pm 22:55 Clear 24 -4.2 17 -8.6 72 72 Calm 30.27 1025 10 16 N/A
11:15 pm 23:15 Clear 24 -4.2 16 -8.7 71 71 SE 3 6 30.27 1025 10 16 N/A
11:35 pm 23:35 Clear 24 -4.5 16 -8.8 72 72 SSE 3 6 30.27 1025 10 16 N/A
11:55 pm 23:55 Clear 23 -4.8 16 -9 73 73 SSE 3 6 30.27 1025 10 16 N/A

Powered by AerisWeather